| time (UTC) | temp C | wind direction | speed KPH | gust KPH | rain 1hr cm | rain 24hr cm | rain mn cm | humidity % | barometer mb |
| 20260504014603 | 11 | 293 | 14.5 | 27.4 | 0.00 | 0.08 | 0.08 | 61 | 1008.2 |
| 20260504013603 | 11 | 286 | 11.3 | 25.7 | 0.00 | 0.08 | 0.08 | 62 | 1008.1 |
| 20260504013103 | 11 | 279 | 9.7 | 22.5 | 0.00 | 0.08 | 0.08 | 62 | 1008.1 |
| 20260504012602 | 11 | 296 | 16.1 | 37.0 | 0.00 | 0.08 | 0.08 | 62 | 1008.1 |
| 20260504011603 | 11 | 284 | 9.7 | 27.4 | 0.00 | 0.08 | 0.08 | 63 | 1008.2 |
| 20260504011103 | 11 | 276 | 9.7 | 27.4 | 0.00 | 0.08 | 0.08 | 63 | 1008.1 |
| 20260504010603 | 11 | 285 | 12.9 | 29.0 | 0.00 | 0.08 | 0.08 | 63 | 1008.2 |
| 20260504005603 | 11 | 292 | 12.9 | 29.0 | 0.00 | 0.08 | 0.08 | 65 | 1008.2 |
| 20260504005103 | 11 | 277 | 11.3 | 27.4 | 0.00 | 0.08 | 0.08 | 66 | 1008.2 |
| 20260504004603 | 11 | 276 | 12.9 | 32.2 | 0.00 | 0.08 | 0.08 | 66 | 1008.2 |
| 20260504004103 | 11 | 271 | 9.7 | 19.3 | 0.00 | 0.08 | 0.08 | 68 | 1008.2 |
| 20260504003603 | 10 | 286 | 14.5 | 25.7 | 0.00 | 0.08 | 0.08 | 70 | 1008.2 |
| 20260504003103 | 10 | 293 | 9.7 | 22.5 | 0.00 | 0.08 | 0.08 | 72 | 1008.3 |
| 20260504002602 | 10 | 281 | 6.4 | 22.5 | 0.00 | 0.08 | 0.08 | 74 | 1008.3 |
| 20260504001603 | 10 | 284 | 3.2 | 14.5 | 0.03 | 0.08 | 0.08 | 80 | 1008.3 |
| 20260504001102 | 9 | 280 | 6.4 | 16.1 | 0.03 | 0.08 | 0.08 | 81 | 1008.4 |
| 20260504000602 | 9 | 288 | 8.0 | 12.9 | 0.03 | 0.08 | 0.08 | 84 | 1008.3 |
| 20260503235603 | 9 | 267 | 3.2 | 4.8 | 0.03 | 0.08 | 0.08 | 87 | 1008.4 |
| 20260503235102 | 9 | 241 | 1.6 | 4.8 | 0.03 | 0.08 | 0.08 | 87 | 1008.5 |
| 20260503233603 | 10 | 274 | 0.0 | 1.6 | 0.03 | 0.08 | 0.08 | 87 | 1008.9 |
| 20260503233103 | 10 | 274 | 1.6 | 3.2 | 0.05 | 0.08 | 0.08 | 86 | 1008.9 |
| 20260503231603 | 10 | 270 | 1.6 | 3.2 | 0.03 | 0.05 | 0.05 | 85 | 1009.1 |
| 20260503231103 | 10 | 297 | 1.6 | 4.8 | 0.03 | 0.05 | 0.05 | 85 | 1009.1 |
| 20260503230603 | 10 | 328 | 1.6 | 4.8 | 0.03 | 0.05 | 0.05 | 84 | 1009.0 |
| 20260503225603 | 10 | 262 | 3.2 | 4.8 | 0.03 | 0.05 | 0.05 | 82 | 1009.1 |
| 20260503225104 | 10 | 319 | 4.8 | 11.3 | 0.03 | 0.05 | 0.05 | 81 | 1009.0 |
| 20260503224603 | 10 | 342 | 4.8 | 14.5 | 0.03 | 0.05 | 0.05 | 81 | 1009.1 |
| 20260503224103 | 10 | 346 | 4.8 | 12.9 | 0.03 | 0.05 | 0.05 | 79 | 1009.2 |
| 20260503223603 | 11 | 288 | 6.4 | 16.1 | 0.03 | 0.05 | 0.05 | 78 | 1009.3 |
| 20260503223102 | 11 | 304 | 8.0 | 20.9 | 0.00 | 0.03 | 0.03 | 76 | 1009.3 |
| 20260503222603 | 11 | 307 | 9.7 | 22.5 | 0.00 | 0.03 | 0.03 | 74 | 1009.3 |
| 20260503222103 | 11 | 299 | 11.3 | 22.5 | 0.00 | 0.03 | 0.03 | 72 | 1009.3 |
| 20260503221603 | 11 | 337 | 11.3 | 25.7 | 0.00 | 0.03 | 0.03 | 70 | 1009.1 |
| 20260503221103 | 11 | 313 | 8.0 | 19.3 | 0.00 | 0.03 | 0.03 | 69 | 1009.1 |
| 20260503220603 | 11 | 313 | 14.5 | 25.7 | 0.00 | 0.03 | 0.03 | 68 | 1009.0 |
| 20260503215602 | 11 | 296 | 9.7 | 20.9 | 0.00 | 0.03 | 0.03 | 65 | 1008.8 |
| 20260503215102 | 11 | 276 | 8.0 | 19.3 | 0.00 | 0.03 | 0.03 | 65 | 1008.7 |
| 20260503214603 | 11 | 269 | 11.3 | 22.5 | 0.00 | 0.03 | 0.03 | 65 | 1008.6 |
| 20260503214103 | 11 | 293 | 8.0 | 22.5 | 0.00 | 0.03 | 0.03 | 64 | 1008.5 |
| 20260503213603 | 11 | 280 | 9.7 | 22.5 | 0.00 | 0.03 | 0.03 | 64 | 1008.5 |
| 20260503213103 | 11 | 292 | 11.3 | 24.1 | 0.00 | 0.03 | 0.03 | 64 | 1008.4 |
| 20260503212603 | 11 | 276 | 9.7 | 22.5 | 0.00 | 0.03 | 0.03 | 65 | 1008.4 |
| 20260503212103 | 11 | 265 | 8.0 | 19.3 | 0.00 | 0.03 | 0.03 | 65 | 1008.4 |
| 20260503211603 | 11 | 251 | 9.7 | 20.9 | 0.00 | 0.03 | 0.03 | 65 | 1008.4 |
| 20260503211103 | 11 | 244 | 8.0 | 19.3 | 0.00 | 0.03 | 0.03 | 65 | 1008.4 |
| 20260503210603 | 11 | 273 | 9.7 | 27.4 | 0.00 | 0.03 | 0.03 | 65 | 1008.4 |
| 20260503210104 | 11 | 266 | 9.7 | 24.1 | 0.00 | 0.03 | 0.03 | 64 | 1008.5 |
| 20260503205603 | 11 | 275 | 8.0 | 20.9 | 0.00 | 0.03 | 0.03 | 65 | 1008.5 |
| 20260503204603 | 11 | 281 | 8.0 | 29.0 | 0.00 | 0.03 | 0.03 | 63 | 1008.6 |
| 20260503204103 | 11 | 253 | 9.7 | 20.9 | 0.00 | 0.03 | 0.03 | 64 | 1008.6 |
| 20260503203603 | 11 | 259 | 11.3 | 25.7 | 0.00 | 0.03 | 0.03 | 63 | 1008.7 |
| 20260503203103 | 11 | 284 | 9.7 | 29.0 | 0.00 | 0.03 | 0.03 | 63 | 1008.7 |
| 20260503202602 | 12 | 261 | 8.0 | 19.3 | 0.00 | 0.03 | 0.03 | 61 | 1008.7 |
| 20260503202103 | 12 | 252 | 8.0 | 24.1 | 0.00 | 0.03 | 0.03 | 62 | 1008.7 |
| 20260503201603 | 12 | 281 | 9.7 | 29.0 | 0.00 | 0.03 | 0.03 | 62 | 1008.8 |
| 20260503201103 | 12 | 270 | 9.7 | 25.7 | 0.00 | 0.03 | 0.03 | 60 | 1008.8 |
| 20260503200603 | 12 | 246 | 9.7 | 22.5 | 0.00 | 0.03 | 0.03 | 59 | 1008.9 |
| 20260503200104 | 12 | 266 | 9.7 | 19.3 | 0.00 | 0.03 | 0.03 | 59 | 1009.0 |
| 20260503195603 | 12 | 279 | 9.7 | 19.3 | 0.00 | 0.03 | 0.03 | 60 | 1009.0 |
| 20260503195103 | 12 | 282 | 8.0 | 24.1 | 0.00 | 0.03 | 0.03 | 58 | 1009.1 |
| 20260503194603 | 13 | 251 | 9.7 | 20.9 | 0.00 | 0.03 | 0.03 | 58 | 1009.2 |
| 20260503194103 | 12 | 262 | 9.7 | 24.1 | 0.00 | 0.03 | 0.03 | 58 | 1009.4 |
| 20260503193603 | 12 | 271 | 12.9 | 22.5 | 0.00 | 0.03 | 0.03 | 58 | 1009.5 |
| 20260503193103 | 12 | 264 | 12.9 | 27.4 | 0.00 | 0.03 | 0.03 | 59 | 1009.6 |
| 20260503192604 | 12 | 282 | 9.7 | 19.3 | 0.00 | 0.03 | 0.03 | 59 | 1009.8 |
| 20260503192103 | 12 | 262 | 8.0 | 32.2 | 0.00 | 0.03 | 0.03 | 58 | 1009.8 |
| 20260503191603 | 12 | 281 | 12.9 | 25.7 | 0.00 | 0.03 | 0.03 | 56 | 1009.9 |
| 20260503191103 | 12 | 257 | 9.7 | 20.9 | 0.00 | 0.03 | 0.03 | 57 | 1010.0 |
| 20260503190604 | 12 | 254 | 9.7 | 22.5 | 0.00 | 0.03 | 0.03 | 55 | 1010.0 |
| 20260503190104 | 12 | 261 | 11.3 | 19.3 | 0.00 | 0.03 | 0.03 | 54 | 1010.0 |
| 20260503185103 | 13 | 279 | 12.9 | 29.0 | 0.00 | 0.03 | 0.03 | 54 | 1010.2 |
| 20260503184603 | 13 | 270 | 16.1 | 37.0 | 0.00 | 0.03 | 0.03 | 53 | 1010.3 |
| 20260503184103 | 13 | 292 | 16.1 | 32.2 | 0.00 | 0.03 | 0.03 | 54 | 1010.4 |
| 20260503183603 | 12 | 266 | 9.7 | 35.4 | 0.00 | 0.03 | 0.03 | 52 | 1010.4 |
| 20260503182603 | 12 | 263 | 14.5 | 27.4 | 0.00 | 0.03 | 0.03 | 50 | 1010.6 |
| 20260503182103 | 12 | 276 | 11.3 | 27.4 | 0.00 | 0.03 | 0.03 | 53 | 1010.7 |
| 20260503181603 | 12 | 266 | 14.5 | 35.4 | 0.00 | 0.03 | 0.03 | 51 | 1010.8 |
| 20260503181103 | 12 | 260 | 11.3 | 32.2 | 0.00 | 0.03 | 0.03 | 56 | 1010.8 |
| 20260503180603 | 11 | 269 | 9.7 | 22.5 | 0.00 | 0.03 | 0.03 | 54 | 1010.9 |
| 20260503180103 | 12 | 283 | 9.7 | 22.5 | 0.00 | 0.03 | 0.03 | 56 | 1011.0 |
| 20260503175605 | 12 | 285 | 11.3 | 25.7 | 0.00 | 0.03 | 0.03 | 56 | 1011.1 |
| 20260503175103 | 11 | 293 | 8.0 | 20.9 | 0.00 | 0.03 | 0.03 | 56 | 1011.1 |
| 20260503174603 | 11 | 269 | 9.7 | 29.0 | 0.00 | 0.03 | 0.03 | 54 | 1011.1 |
| 20260503174103 | 12 | 292 | 11.3 | 32.2 | 0.00 | 0.03 | 0.03 | 54 | 1011.1 |
| 20260503173603 | 12 | 266 | 11.3 | 24.1 | 0.00 | 0.03 | 0.03 | 54 | 1011.3 |
| 20260503173104 | 11 | 273 | 11.3 | 20.9 | 0.00 | 0.03 | 0.03 | 54 | 1011.3 |
| 20260503172103 | 12 | 296 | 9.7 | 22.5 | 0.00 | 0.03 | 0.03 | 54 | 1011.6 |
| 20260503171602 | 12 | 269 | 9.7 | 22.5 | 0.00 | 0.03 | 0.03 | 53 | 1011.5 |
| 20260503171103 | 12 | 280 | 11.3 | 24.1 | 0.00 | 0.03 | 0.03 | 51 | 1011.7 |
| 20260503170604 | 12 | 285 | 16.1 | 32.2 | 0.00 | 0.03 | 0.03 | 53 | 1011.7 |
| 20260503170103 | 12 | 264 | 8.0 | 19.3 | 0.00 | 0.03 | 0.03 | 55 | 1011.7 |
| 20260503140103 | 10 | 310 | 9.7 | 20.9 | 0.00 | 0.03 | 0.03 | 70 | 1013.0 |
| 20260503131103 | 9 | 270 | 4.8 | 14.5 | 0.00 | 0.03 | 0.03 | 75 | 1013.3 |
| 20260503130603 | 8 | 275 | 8.0 | 19.3 | 0.00 | 0.03 | 0.03 | 76 | 1013.3 |
| 20260503120104 | 3 | 239 | 4.8 | 12.9 | 0.03 | 0.03 | 0.03 | 85 | 1013.6 |
| 20260503110604 | 0 | 249 | 0.0 | 3.2 | 0.00 | 0.00 | 0.00 | 93 | 1013.5 |
| 20260503110104 | 0 | 245 | 1.6 | 4.8 | 0.00 | 0.00 | 0.00 | 93 | 1013.5 |
| 20260503090104 | -1 | 287 | 0.0 | 1.6 | 0.00 | 0.00 | 0.00 | 89 | 1013.8 |
| 20260503081603 | -1 | 287 | 0.0 | 1.6 | 0.00 | 0.00 | 0.00 | 88 | 1013.9 |
| 20260503081103 | 0 | 287 | 0.0 | 0.0 | 0.00 | 0.00 | 0.00 | 88 | 1013.9 |
| 20260503080603 | 0 | 287 | 0.0 | 3.2 | 0.00 | 0.00 | 0.00 | 88 | 1013.9 |
| 20260503080104 | 0 | 287 | 0.0 | 0.0 | 0.00 | 0.00 | 0.00 | 88 | 1013.9 |
| 20260503072603 | 0 | 277 | 1.6 | 1.6 | 0.00 | 0.00 | 0.00 | 86 | 1013.8 |
| 20260503072104 | 0 | 276 | 0.0 | 1.6 | 0.00 | 0.00 | 0.00 | 86 | 1013.8 |
| 20260503071603 | 0 | 276 | 0.0 | 4.8 | 0.00 | 0.00 | 0.00 | 86 | 1013.8 |
| 20260503071103 | 0 | 267 | 0.0 | 0.0 | 0.00 | 0.00 | 0.00 | 86 | 1013.7 |
| 20260503070103 | 0 | 267 | 0.0 | 0.0 | 0.00 | 0.00 | 0.00 | 86 | 1013.7 |
| 20260503060103 | 1 | 265 | 1.6 | 3.2 | 0.00 | 0.00 | 0.00 | 85 | 1014.0 |
| 20260503055104 | 1 | 278 | 1.6 | 3.2 | 0.00 | 0.00 | 0.00 | 84 | 1014.0 |
| 20260503054603 | 1 | 278 | 1.6 | 3.2 | 0.00 | 0.00 | 0.00 | 85 | 1014.0 |
| 20260503054103 | 1 | 278 | 1.6 | 3.2 | 0.00 | 0.00 | 0.00 | 85 | 1014.0 |
| 20260503053603 | 1 | 278 | 1.6 | 3.2 | 0.00 | 0.00 | 0.00 | 85 | 1014.0 |
| 20260503053104 | 1 | 283 | 1.6 | 3.2 | 0.00 | 0.00 | 0.00 | 84 | 1014.1 |
| 20260503052103 | 2 | 284 | 1.6 | 3.2 | 0.00 | 0.00 | 0.00 | 84 | 1014.2 |
| 20260503051604 | 2 | 285 | 1.6 | 3.2 | 0.00 | 0.00 | 0.00 | 84 | 1014.2 |
| 20260503050104 | 2 | 252 | 1.6 | 4.8 | 0.00 | 0.00 | 0.00 | 84 | 1014.3 |
| 20260503045604 | 2 | 257 | 1.6 | 4.8 | 0.00 | 0.00 | 0.00 | 84 | 1014.3 |
| 20260503045103 | 2 | 245 | 1.6 | 3.2 | 0.00 | 0.00 | 0.00 | 84 | 1014.3 |
| 20260503044603 | 2 | 245 | 1.6 | 4.8 | 0.00 | 0.00 | 0.00 | 83 | 1014.3 |
| 20260503043603 | 2 | 253 | 1.6 | 3.2 | 0.00 | 0.00 | 0.00 | 82 | 1014.4 |
| 20260503042604 | 2 | 251 | 1.6 | 4.8 | 0.00 | 0.00 | 0.00 | 82 | 1014.4 |
| 20260503042104 | 2 | 252 | 1.6 | 1.6 | 0.00 | 0.00 | 0.00 | 82 | 1014.5 |
| 20260503041604 | 3 | 252 | 1.6 | 4.8 | 0.00 | 0.00 | 0.00 | 81 | 1014.5 |
| 20260503041103 | 3 | 252 | 1.6 | 3.2 | 0.00 | 0.00 | 0.00 | 81 | 1014.5 |
| 20260503040603 | 3 | 252 | 1.6 | 3.2 | 0.00 | 0.00 | 0.00 | 80 | 1014.6 |
| 20260503040104 | 3 | 254 | 1.6 | 3.2 | 0.00 | 0.00 | 0.00 | 80 | 1014.6 |
| 20260503034604 | 3 | 253 | 1.6 | 3.2 | 0.00 | 0.00 | 0.00 | 79 | 1014.5 |
| 20260503034103 | 3 | 253 | 1.6 | 3.2 | 0.00 | 0.00 | 0.00 | 79 | 1014.6 |
| 20260503033604 | 3 | 254 | 0.0 | 0.0 | 0.00 | 0.00 | 0.00 | 79 | 1014.6 |
| 20260503033103 | 3 | 254 | 0.0 | 1.6 | 0.00 | 0.00 | 0.00 | 79 | 1014.6 |
| 20260503032603 | 3 | 254 | 1.6 | 3.2 | 0.00 | 0.00 | 0.00 | 79 | 1014.6 |
| 20260503032104 | 4 | 254 | 1.6 | 4.8 | 0.00 | 0.00 | 0.00 | 78 | 1014.7 |
| 20260503031603 | 4 | 283 | 1.6 | 4.8 | 0.00 | 0.00 | 0.00 | 78 | 1014.7 |
| 20260503031103 | 4 | 256 | 1.6 | 4.8 | 0.00 | 0.00 | 0.00 | 78 | 1014.7 |
| 20260503030604 | 4 | 239 | 3.2 | 4.8 | 0.00 | 0.00 | 0.00 | 78 | 1014.7 |
| 20260503030104 | 4 | 265 | 3.2 | 4.8 | 0.00 | 0.00 | 0.00 | 78 | 1014.7 |
| 20260503025604 | 4 | 249 | 1.6 | 4.8 | 0.00 | 0.00 | 0.00 | 78 | 1014.7 |
| 20260503025103 | 4 | 251 | 1.6 | 3.2 | 0.00 | 0.00 | 0.00 | 78 | 1014.8 |
| 20260503024604 | 4 | 251 | 1.6 | 3.2 | 0.00 | 0.00 | 0.00 | 78 | 1014.8 |
| 20260503023603 | 4 | 264 | 1.6 | 4.8 | 0.00 | 0.00 | 0.00 | 78 | 1014.8 |
| 20260503022103 | 5 | 267 | 1.6 | 4.8 | 0.00 | 0.00 | 0.00 | 78 | 1015.0 |
| 20260503021103 | 5 | 291 | 1.6 | 3.2 | 0.00 | 0.00 | 0.00 | 77 | 1015.1 |
| 20260503020603 | 5 | 291 | 1.6 | 4.8 | 0.00 | 0.00 | 0.00 | 77 | 1015.1 |
| 20260503015103 | 5 | 255 | 1.6 | 4.8 | 0.00 | 0.00 | 0.00 | 75 | 1015.0 |